Regional Weather Roundup
Issued by NWS Northern Indiana

Home | Current Version | Previous Version | Graphics & Text | Print | Product List | Glossary On
Versions: 1 2 3 4 5 6 7 8 9 10 11 12 13 14 15 16 17 18 19 20 21 22 23 24 25 26 27 28 29 30 31 32 33 34 35 36 37 38 39 40 41 42 43 44 45 46 47 48 49 50
512
ASUS43 KIWX 231000
RWRIWX

KIWX WEATHER ROUNDUP
NATIONAL WEATHER SERVICE NORTHERN INDIANA
600 AM EDT SAT JUL 23 2016

NOTE: "FAIR" INDICATES FEW OR NO CLOUDS BELOW 12,000 FEET WITH NO
SIGNIFICANT WEATHER AND/OR OBSTRUCTIONS TO VISIBILITY.

* THESE STATIONS ARE NOT UNDER NWS QUALITY CONTROL. THEY ALSO MAY NOT
  REPORT WEATHER SUCH AS PRECIPITATION OR FOG.

INZ001>027-231100-
NORTHERN INDIANA

CITY           SKY/WX    TMP DP  RH WIND       PRES   REMARKS
KNOX*          CLEAR     70  68  94 SW3       29.99F
SOUTH BEND     CLEAR     72  71  97 SW3       30.00S
GOSHEN         FOG       69  66  90 CALM      30.00S VSB 1/4
MONTICELLO*    CLEAR     70  66  88 CALM      29.99F
ANGOLA*          N/A     66  57  72 CALM      30.01S VSB 1/2
FORT WAYNE     CLEAR     69  68  96 S5        30.01S
PERU/GRISSOM   CLEAR     70  70 100 S5        30.00R FOG

$$
INZ028>050-231100-
CENTRAL INDIANA

CITY           SKY/WX    TMP DP  RH WIND       PRES   REMARKS
LAFAYETTE      FOG       71  71 100 CALM      30.00S VSB 1/4
KOKOMO*        CLEAR     70  64  83 S3        30.01S
MUNCIE*        MOCLDY    71  69  93 CALM      30.02S
INDIANAPOLIS   PTCLDY    73  70  90 W5        30.01F

$$
MIZ043>046-050>051-056>058-064>065-071>073-077>080-231100-
SOUTHWEST LOWER MICHIGAN

CITY           SKY/WX    TMP DP  RH WIND       PRES   REMARKS
BATTLE CREEK   CLEAR     66  66 100 CALM      30.01R
BENTON HARBOR  CLEAR     68  65  90 CALM      29.98S FOG
COLDWATER*     PTCLDY    65  65 100 CALM      30.01R FOG
HOLLAND        CLEAR     63  62  97 E3        29.99S FOG
GRAND RAPIDS   PTCLDY    66  63  90 CALM      29.99F
KALAMAZOO      FOG       66  63  90 CALM      30.00R VSB 3/4
STURGIS*       FOG       65  65  99 CALM      30.00S VSB 3/4
THREE RIVERS*  FOG       66  65  97 CALM      30.01R VSB 1/2

$$
OHZ001>008-015>018-024>025-231100-
NORTHWEST OHIO

CITY           SKY/WX    TMP DP  RH WIND       PRES   REMARKS
DEFIANCE       PTCLDY    71  68  90 CALM      30.01R FOG
FINDLAY        CLEAR     73  68  84 CALM      30.00S
TOLEDO EXPRESS CLEAR     70  70 100 SW3       29.99S
TOLEDO METCALF CLEAR     73  71  93 SW5       29.99S
LIMA           CLEAR     71  71 100 CALM      30.02S

$$
AND FOR LAKE MICHIGAN COASTAL AND OPEN LAKE BUOY OBSERVATIONS

STATION/POSITION TEMP    WIND        PRES    VSBY  WAVE
                 AIR SEA DIR/SP/G                  HT/PER
                 (F)     (DEG/KT/KT) (MB)    (MI)  (FT/S)
CALUMET HARBOR    79     220/  3/  4 1014.9R
MICHIGAN CITY     77     190/  7/  7   N/A
BURNS HARBOR      78     210/  7/  9 1015.9S
SAINT JOSEPH      78     190/  4/  7 1015.6F
SOUTH LAKE BUOY   75 73  200/  4/  4 1014.4          0
4 MI NW BRIDGMAN  76 75  150/  2/  4 1015.0S         0
MICHIGAN CITY     76 74  230/  6/  6   N/A           1

$$
&&




USA.gov is the U.S. government's official web portal to all federal, state and local government web resources and services.